星链-32491 (STARLINK-32491)

导读

STARLINK-32491是美国SpaceX公司星链(Starlink)低轨卫星互联网星座的成员,于2024年11月21日发射。星链计划旨在通过大规模低轨卫星组网,为全球尤其是基础设施匮乏地区提供高速低延迟宽带互联网服务。该卫星加入星座后,进一步扩大了星链的全球覆盖范围,助力实现更稳定的网络连接,推动星链全球化服务布局,目前星链已在全球百余个国家和地区提供服务。

基本信息
目录编号:
62043
目录名称:
STARLINK-32491
国际标识:
2024-216M
轨道中心:
EARTH
卫星名称:
星链-32491
卫星全名:
星链-32491 (STARLINK-32491)
卫星状态:
在轨 (已飞行652 天)
发射日期:
2024-11-21 UTC
国别 :
美国 (US)
星等 :
--
轨道信息
数据来源 国际轨道数据
星历时间: 2026-09-04T14:56:53+0800
7小时前
查看轨道信息
半长轴: 6861.169km
偏心率: 0.0002894
轨道倾角: 43.006°
近地点辐角 286.300°
升交点赤经 335.167°
平近点角 73.754°
近地点: 481.046km
远地点: 485.018km
周期: 94.266分钟
每日圈数: 15.275859
详细信息
固有亮度:
5
最大亮度:
2.5
卫星平台:
Starlink V1.0
覆盖范围:
全球
运营商:
太空探索技术公司
运营商所在国:
美国
制造商(研发单位):
太空探索技术公司
制造商所在国:
美国
使用方式:
暂无
卫星简介
Starlink 计划是 SpaceX 推出的全球卫星互联网项目,通过发射低轨道卫星,为全球尤其是偏远地区提供高速、低延迟的互联网服务。自 2019 年起,Starlink 已部署数千颗卫星,旨在缩小全球数字鸿沟,推动互联网普及。该项目还为军事、航空等行业提供通信支持,带来广泛经济效益。
2D轨道图
3D轨道图
轨道高度分析图
轨道倾角分析图
轨道综合分析图
查看轨道综合分析图
交会数据列表
事件ID 空间交会对象 最接近时刻(TCA) 交会距离 交会风险概率(CRP) 交会风险指数(CRI) 操作
CDM_260828-170805-841506-204322
2026-08-28T
17:08:28+0000
0.211 km
中距离
6.656483E-4 高风险 0.91
CDM_260828-170706-204306-801021
2026-08-28T
17:07:49+0000
0.814 km
远距离
4.082146E-5 中风险 0.67
CDM_260828-153306-204306-801021
2026-08-28T
15:33:40+0000
1.373 km
极远距离
6.842609E-6 低风险 0.52
CDM_260828-135906-204306-801021
2026-08-28T
13:59:31+0000
2.064 km
极远距离
2.060167E-6 低风险 0.41
CDM_260828-153405-841506-204321
2026-08-28T
15:34:19+0000
2.174 km
极远距离
1.839174E-6 低风险 0.4